Volver al catálogo

DELTA 1 DEB

ActivoSSO
NORAD 20008·DEBRIS·🇺🇸 United States

Lanzado Mar 5, 1978 desde Vandenberg Space Force Base

Loading…

Próximos Pases (próximas 24 horas)

TLE

EnvejeciendoSource: Space-Track

Época: Sep 11, 2026, 04:13 UTC

1 20008U 78026HR  26254.17578593  .00000302  00000-0  23747-3 0  9998
2 20008  98.8483 144.4962 0198603 163.9092 196.8498 13.89856587 23289

Sigue DELTA 1 DEB en tiempo real con AllMySat

Download on the App Store